[[{"header":{"parameterUnit":"m.s-1","parameterCategory":1,"la1":30.2991,"la2":30.254,"lo1":-89.0895,"lo2":-89.0444,"dy":0.0017,"dx":0.0017,"nx":28,"ny":28,"refTime":"2024-02-03T03:00:00:Z","depth":0,"parameterNumber":2,"parameterNumberName":"U-component_of_WINDS"},"data":[0,0,0,0,0,0,0,0,0,0,0,0,0,0,0,0,0,0,0,0,0,0,0,0,0,0,0,0,0,0,0,0,0,0,0,0,0,0,0,0,0,0,0,0,0,0,0,0,0,0,0,0,0,0,0,0,0,0,5.9741,5.9744,0,5.9996,5.9999,6.0002,5.9968,5.9964,5.9959,5.9955,6.0214,6.0225,6.0235,0,0,0,0,0,0,0,0,0,0,0,0,0,5.9228,5.9237,5.9741,5.9744,5.9747,5.9996,5.9999,6.0003,5.9969,5.9963,5.9958,5.9954,6.0211,6.0223,6.0236,0,0,0,0,0,0,0,0,0,0,0,0,0,5.9463,5.9241,5.974,5.976,5.9765,5.9995,5.9999,6.0003,5.997,5.9963,5.9957,5.9951,6.0206,6.0222,6.0238,6.0464,0,0,6.0288,6.0295,0,0,0,0,0,0,0,0,5.945,5.9482,5.9754,5.9759,5.9765,5.9944,5.9913,6.0158,5.9971,5.9892,5.9955,5.9948,6.0129,6.0151,6.0213,6.0476,6.0487,6.0289,6.0299,6.0306,6.031,0,0,0,0,0,0,0,5.9434,5.9471,5.9842,5.9758,5.9765,5.9758,5.9784,5.9959,6.0043,5.9898,5.9896,5.9927,6.0131,6.0197,6.0219,6.0491,6.0289,6.0303,6.0313,6.0319,6.0959,6.0966,0,0,0,0,0,0,5.9412,5.9458,5.9834,5.9849,5.9589,5.9772,5.9802,5.9893,6.0041,6.0057,5.9932,5.9925,6.0173,6.02,6.0228,6.0506,6.0306,6.0321,6.033,6.0952,6.0961,6.0969,0,0,0,0,0,0,5.9401,5.9446,5.9823,5.9654,5.9701,5.9788,5.989,5.9901,5.9967,6.0066,6.0081,5.9985,6.0169,6.0205,6.0407,6.0515,6.0328,6.0343,6.0944,6.0955,6.0965,6.1062,0,0,0,0,0,0,5.9387,5.9442,5.9528,5.9656,5.971,5.9998,5.9896,5.991,5.9996,5.9988,6.012,6.0135,6.0167,6.0383,6.0423,6.0534,6.0356,6.0934,6.0949,6.0962,6.105,6.1075,6.1097,0,0,0,0,0,5.9369,5.9543,5.9532,5.9578,5.9819,6.0004,6.0036,6.0069,6.0004,6.0092,6.0157,6.0131,6.0496,6.0404,6.0449,6.0566,6.0928,6.0945,6.0961,6.1039,6.107,6.1097,0,0,0,0,0,0,5.9423,5.956,5.9549,5.977,5.9877,5.9998,6.0109,6.01,6.0225,6.0212,6.0248,6.0278,6.0484,6.0545,6.044,6.0796,6.0703,6.073,6.0748,6.0778,6.0801,6.0783,6.0369,0,0,0,0,0,5.9462,5.9601,5.9712,5.9897,5.9951,6.0022,6.0103,6.0121,6.0231,6.0275,6.0354,6.0463,6.0603,6.0694,6.0827,6.1059,6.1089,6.1162,6.1185,6.1204,6.1227,6.1359,6.1394,6.1023,6.1023,6.1022,0,0,5.9541,5.9633,5.9718,5.9911,5.9994,6.014,6.0059,6.0214,6.0323,6.0299,6.0496,6.0559,6.0682,6.0902,6.1002,6.0959,6.1336,6.1225,6.1239,6.1252,6.138,6.1415,6.1446,6.1034,6.1032,6.103,0,0,5.9761,5.9843,6.0008,6.0096,6.0225,6.0272,6.0312,6.0438,6.0479,6.0678,6.0665,6.0795,6.1033,6.1124,6.1201,6.1463,6.1445,6.1505,6.1628,6.1757,6.1786,6.1812,6.191,6.1944,6.1527,6.1527,6.1528,0,5.9843,6.006,6.0094,6.0254,6.0341,6.0329,6.0498,6.0581,6.0747,6.0808,6.0757,6.1062,6.1143,6.1387,6.1451,6.1513,6.1562,6.149,6.1779,6.1806,6.1831,6.1924,6.196,6.1534,6.1533,6.1533,6.1532,0,6.0158,6.0309,6.0427,6.0592,6.0692,6.0855,6.0916,6.1013,6.1024,6.1077,6.1283,6.1382,6.1538,6.1597,6.1606,6.1844,6.1813,6.1771,6.1679,6.1872,6.1961,6.1996,6.1544,6.1541,6.1539,6.1538,0,0,6.0415,6.0601,6.0644,6.0721,6.0866,6.0984,6.1149,6.1304,6.1389,6.1505,6.1647,6.1852,6.1816,6.1904,6.1925,6.2038,6.2245,6.1982,6.1986,6.203,6.2517,6.255,6.259,6.2234,6.2241,6.2246,6.2508,0,6.0652,6.0944,6.0982,6.1241,6.1385,6.1379,6.1523,6.1629,6.1684,6.1815,6.1875,6.2022,6.1961,6.2015,6.2127,6.2195,6.2343,6.2177,6.2368,6.2374,6.2338,6.2636,6.2669,6.2911,6.2542,6.2548,6.2552,0,6.0965,6.1094,6.1368,6.15,6.1561,6.169,6.1839,6.1962,6.2084,6.2117,6.2219,6.2227,6.24,6.2302,6.2544,6.243,6.2511,6.2557,6.2567,6.2587,6.2475,6.2666,6.2989,6.3026,6.2606,6.2602,6.2598,0,6.113,6.1372,6.1569,6.1635,6.1791,6.1883,6.1953,6.2068,6.2161,6.2291,6.2353,6.25,6.2582,6.2697,6.2746,6.2669,6.2986,6.289,6.302,6.302,6.3087,6.3082,6.343,6.3136,6.3136,6.3135,6.3134,0,6.1391,6.1559,6.1646,6.1767,6.1958,6.2002,6.219,6.2257,6.2361,6.2497,6.25,6.2627,6.2684,6.2821,6.286,6.3057,6.3093,6.3126,6.3135,6.3127,6.3123,6.3181,6.3166,6.3145,6.3143,6.3141,6.3139,0,6.1606,6.1671,6.1886,6.2019,6.2057,6.2192,6.2307,6.2426,6.2482,6.2654,6.2697,6.2786,6.2948,6.3009,6.3205,6.3232,6.3461,6.3455,6.3421,6.3423,6.3551,6.3539,6.3949,6.4006,6.3673,6.3676,6.3678,0,6.1769,6.19,6.2048,6.2141,6.2214,6.2362,6.2458,6.2508,6.2608,6.2761,6.2863,6.3025,6.3157,6.3417,6.35,6.3652,6.3651,6.3784,6.3673,6.3663,6.3657,6.3649,6.3664,6.3804,6.3808,6.3811,6.3813,0,6.2052,6.208,6.2218,6.237,6.2486,6.2607,6.2725,6.2801,6.2869,6.2982,6.315,6.3253,6.3457,6.3619,6.3777,6.385,6.3845,6.3848,6.3886,6.388,6.3856,6.3875,6.3479,6.3838,6.3835,6.3833,6.3832,6.3831,6.2249,6.2367,6.2492,6.2648,6.2743,6.2855,6.2975,6.3049,6.3189,6.3361,6.3382,6.3563,6.3687,6.3898,6.3979,6.4122,6.4086,6.4141,6.4156,6.4169,6.418,6.3833,6.4151,6.415,6.4149,6.4149,6.4148,0,6.2535,6.2616,6.276,6.2927,6.3051,6.3037,6.3169,6.3274,6.3434,6.355,6.3682,6.3878,6.4037,6.4134,6.4295,6.4391,6.4393,6.4432,6.4426,6.4444,6.4201,6.4153,6.4428,6.4428,6.4428,6.4428,6.4428,6.4428,6.2699,6.2899,6.2942,6.3192,6.3272,6.3451,6.3528,6.3633,6.3727,6.3946,6.4079,6.4142,6.4252,6.4422,6.4569,6.4593,6.4653,6.4696,6.4718,6.4489,6.446,6.4433,6.4388,6.4708,6.4708,6.4949,6.4951,6.4953]},{"header":{"parameterUnit":"m.s-1","parameterCategory":1,"la1":30.2991,"la2":30.254,"lo1":-89.0895,"lo2":-89.0444,"dy":0.0017,"dx":0.0017,"nx":28,"ny":28,"refTime":"2024-02-03T03:00:00:Z","depth":0,"parameterNumber":3,"parameterNumberName":"V-component_of_WINDS"},"data":[0,0,0,0,0,0,0,0,0,0,0,0,0,0,0,0,0,0,0,0,0,0,0,0,0,0,0,0,0,0,0,0,0,0,0,0,0,0,0,0,0,0,0,0,0,0,0,0,0,0,0,0,0,0,0,0,0,0,-1.7589,-1.7591,0,-1.7825,-1.7828,-1.7831,-1.7984,-1.7985,-1.7986,-1.7987,-1.822,-1.8225,-1.823,0,0,0,0,0,0,0,0,0,0,0,0,0,-1.7264,-1.7269,-1.7588,-1.7591,-1.7594,-1.7825,-1.7828,-1.7831,-1.7984,-1.7985,-1.7986,-1.7987,-1.8218,-1.8224,-1.8231,0,0,0,0,0,0,0,0,0,0,0,0,0,-1.7442,-1.727,-1.7588,-1.7698,-1.7711,-1.7824,-1.7828,-1.7832,-1.7983,-1.7985,-1.7986,-1.7988,-1.8216,-1.8224,-1.8232,-1.8251,0,0,-1.8256,-1.8259,0,0,0,0,0,0,0,0,-1.7432,-1.7454,-1.7679,-1.7691,-1.7705,-1.7877,-1.7799,-1.7972,-1.7983,-1.788,-1.7987,-1.7988,-1.8104,-1.8121,-1.8162,-1.8262,-1.8272,-1.8256,-1.8261,-1.8265,-1.8267,0,0,0,0,0,0,0,-1.742,-1.7445,-1.7682,-1.7682,-1.7698,-1.7735,-1.7762,-1.7833,-1.798,-1.7889,-1.79,-1.7927,-1.8111,-1.8154,-1.8169,-1.8275,-1.8256,-1.8263,-1.8268,-1.8271,-1.8406,-1.8405,0,0,0,0,0,0,-1.7391,-1.7433,-1.7674,-1.7689,-1.757,-1.7739,-1.777,-1.782,-1.798,-1.8006,-1.7925,-1.7933,-1.814,-1.8159,-1.8177,-1.8213,-1.8265,-1.8272,-1.8277,-1.8407,-1.8406,-1.8404,0,0,0,0,0,0,-1.7383,-1.7411,-1.7665,-1.7565,-1.76,-1.7743,-1.7799,-1.7824,-1.7867,-1.8008,-1.8034,-1.7942,-1.8142,-1.8166,-1.8233,-1.8223,-1.8276,-1.8283,-1.8408,-1.8407,-1.8405,-1.8281,0,0,0,0,0,0,-1.7373,-1.7407,-1.7417,-1.7564,-1.7605,-1.7718,-1.7798,-1.7827,-1.7881,-1.7894,-1.8031,-1.8055,-1.8145,-1.822,-1.8241,-1.8235,-1.8289,-1.841,-1.8408,-1.8405,-1.8287,-1.8275,-1.8266,0,0,0,0,0,-1.7361,-1.737,-1.7416,-1.7445,-1.762,-1.7717,-1.774,-1.7846,-1.788,-1.7891,-1.7982,-1.805,-1.8221,-1.8226,-1.825,-1.8246,-1.8411,-1.8408,-1.8406,-1.8292,-1.8278,-1.8266,0,0,0,0,0,0,-1.7214,-1.7391,-1.7445,-1.7502,-1.7594,-1.7743,-1.7759,-1.7827,-1.7909,-1.7917,-1.8042,-1.8072,-1.8126,-1.8193,-1.8195,-1.8275,-1.8324,-1.8326,-1.8229,-1.8217,-1.8206,-1.8189,-1.8296,0,0,0,0,0,-1.7189,-1.7255,-1.7405,-1.7441,-1.7485,-1.7614,-1.766,-1.7734,-1.7833,-1.7871,-1.7967,-1.8058,-1.8133,-1.8179,-1.8255,-1.8298,-1.833,-1.8307,-1.8297,-1.8287,-1.8287,-1.8317,-1.8309,-1.8395,-1.8396,-1.8396,0,0,-1.7136,-1.7241,-1.7274,-1.7414,-1.7494,-1.7558,-1.7645,-1.7708,-1.7757,-1.788,-1.795,-1.8023,-1.8133,-1.8189,-1.8218,-1.8246,-1.8271,-1.8284,-1.8275,-1.8281,-1.8313,-1.8305,-1.8297,-1.8394,-1.8394,-1.8394,0,0,-1.7074,-1.716,-1.7201,-1.728,-1.7402,-1.7488,-1.7497,-1.7638,-1.7692,-1.7766,-1.786,-1.7918,-1.8043,-1.8119,-1.8173,-1.8143,-1.821,-1.8164,-1.8108,-1.8136,-1.8129,-1.8124,-1.8113,-1.8108,-1.8164,-1.8164,-1.8164,0,-1.6993,-1.7095,-1.7212,-1.7272,-1.733,-1.745,-1.7491,-1.7562,-1.77,-1.7737,-1.7768,-1.793,-1.8012,-1.8088,-1.8081,-1.8121,-1.8136,-1.8149,-1.8121,-1.8117,-1.8113,-1.8105,-1.8101,-1.8158,-1.8158,-1.8159,-1.8159,0,-1.699,-1.7059,-1.7077,-1.7213,-1.7274,-1.7323,-1.7447,-1.7494,-1.7564,-1.7647,-1.772,-1.7824,-1.7924,-1.7948,-1.8014,-1.8034,-1.8048,-1.8098,-1.815,-1.8097,-1.8091,-1.8089,-1.8149,-1.8151,-1.8153,-1.8154,0,0,-1.6838,-1.7041,-1.7046,-1.711,-1.7254,-1.7309,-1.7364,-1.7467,-1.7505,-1.7597,-1.7646,-1.7752,-1.7801,-1.7862,-1.7939,-1.7963,-1.7934,-1.8011,-1.8016,-1.7993,-1.7963,-1.7924,-1.7918,-1.798,-1.798,-1.798,-1.7954,0,-1.6798,-1.6907,-1.7015,-1.7085,-1.7151,-1.7267,-1.7315,-1.7408,-1.7487,-1.7554,-1.7641,-1.7714,-1.7772,-1.7811,-1.784,-1.7931,-1.7929,-1.7935,-1.8025,-1.8027,-1.7994,-1.7915,-1.7874,-1.7844,-1.7952,-1.7952,-1.7952,0,-1.6764,-1.6855,-1.6932,-1.7073,-1.7105,-1.7147,-1.7251,-1.7313,-1.7421,-1.7477,-1.7548,-1.7631,-1.7694,-1.774,-1.7829,-1.783,-1.7874,-1.7924,-1.7926,-1.7937,-1.7985,-1.7924,-1.7837,-1.7832,-1.7949,-1.7949,-1.7949,0,-1.6647,-1.6788,-1.6854,-1.6905,-1.707,-1.7098,-1.7167,-1.7278,-1.7333,-1.7422,-1.746,-1.7554,-1.7605,-1.7675,-1.7781,-1.7804,-1.7858,-1.7913,-1.7906,-1.7903,-1.7911,-1.7908,-1.7828,-1.7939,-1.7939,-1.7939,-1.7939,0,-1.659,-1.6632,-1.6804,-1.6844,-1.6895,-1.702,-1.7066,-1.7146,-1.7244,-1.73,-1.7405,-1.7455,-1.7592,-1.7658,-1.7741,-1.7802,-1.7824,-1.787,-1.7891,-1.7861,-1.7855,-1.789,-1.7895,-1.7938,-1.7938,-1.7938,-1.7939,0,-1.6467,-1.6584,-1.6663,-1.6815,-1.6854,-1.6885,-1.7015,-1.7057,-1.7145,-1.7215,-1.7238,-1.7373,-1.7457,-1.7571,-1.7688,-1.7744,-1.7794,-1.7827,-1.7758,-1.7771,-1.7758,-1.7757,-1.7697,-1.7696,-1.7806,-1.7805,-1.7804,0,-1.6422,-1.6459,-1.6616,-1.6663,-1.6731,-1.6805,-1.6863,-1.6987,-1.7043,-1.7171,-1.7198,-1.7291,-1.7372,-1.75,-1.7607,-1.7698,-1.7735,-1.7708,-1.7748,-1.7717,-1.7735,-1.7731,-1.7736,-1.7696,-1.7695,-1.7693,-1.7692,0,-1.6331,-1.6389,-1.647,-1.6572,-1.664,-1.6726,-1.6816,-1.6848,-1.6991,-1.7048,-1.7138,-1.7201,-1.7324,-1.7414,-1.752,-1.759,-1.7664,-1.7679,-1.7682,-1.7651,-1.7609,-1.7632,-1.7731,-1.7679,-1.768,-1.7681,-1.7682,-1.7683,-1.6247,-1.6286,-1.6404,-1.6491,-1.6574,-1.6656,-1.6705,-1.68,-1.6877,-1.6989,-1.7058,-1.7144,-1.7253,-1.7404,-1.7471,-1.7539,-1.7568,-1.7572,-1.7573,-1.7572,-1.7563,-1.7599,-1.7558,-1.7559,-1.7559,-1.756,-1.756,0,-1.6162,-1.6245,-1.6325,-1.645,-1.6519,-1.6588,-1.6692,-1.6744,-1.682,-1.6917,-1.6996,-1.7099,-1.7188,-1.7304,-1.7401,-1.7433,-1.747,-1.7455,-1.7453,-1.7468,-1.7531,-1.7518,-1.7424,-1.7424,-1.7424,-1.7424,-1.7424,-1.7424,-1.6126,-1.6196,-1.6267,-1.6378,-1.6461,-1.6549,-1.6603,-1.6679,-1.6758,-1.687,-1.6946,-1.7022,-1.7127,-1.7233,-1.7318,-1.735,-1.738,-1.7354,-1.7395,-1.7451,-1.7463,-1.7475,-1.7464,-1.736,-1.736,-1.7328,-1.7328,-1.7327]}]]